DateTime,F1_A11,F1_S11,BsB_S11,BsG_S11,BsR_S11,BbsB_S11,BbsG_S11,BbsR_S11,BaB_A11,BaG_A11,BaR_A11,T_S11,U_S11,P_S11,T1_A11
2016-02-16T00:00:00Z,0000380,21000600,,,,,,,,,,25.5,00.0,0633.8,34.5
2016-02-16T00:01:00Z,0000380,21000600,,,,,,,,,,25.5,00.0,0633.8,34.5
2016-02-16T00:02:00Z,0000380,21000600,,,,,,,,,,25.5,00.0,0633.8,34.5
2016-02-16T00:03:00Z,0000380,61000600,,,,,,,,,,25.6,00.0,0633.8,34.5
2016-02-16T00:04:00Z,0000380,41000600,0000.44,0000.46,0001.13,-000.17,-000.12,-000.05,0000.16,0000.17,-000.06,25.8,00.0,0634.4,34.5
2016-02-16T00:05:00Z,0000380,01000600,0000.72,0000.70,0000.40,-000.10,-000.18,-000.15,-000.04,-000.12,-000.26,25.8,00.0,0634.4,34.5
2016-02-16T00:06:00Z,0000380,01000600,-000.04,-000.13,0000.26,0000.33,0000.03,-000.05,0000.02,0000.30,0000.70,25.8,00.0,0634.4,34.5
2016-02-16T00:07:00Z,0000380,01000600,-000.10,-000.18,0000.52,-000.27,0000.03,0000.15,0000.04,-000.10,-000.15,25.8,00.0,0634.4,34.5
2016-02-16T00:08:00Z,0000380,01000600,-001.26,0000.45,0000.39,-000.10,0000.05,0000.22,0000.03,0000.12,0000.09,25.8,00.0,0634.4,34.5
2016-02-16T00:09:00Z,0000380,01000600,0000.80,0000.79,0000.45,0000.03,0000.51,0000.30,0000.18,-000.01,-000.18,25.8,00.0,0634.3,34.5
2016-02-16T00:10:00Z,0000380,01000600,0000.32,0000.22,-000.02,-000.45,0000.13,0000.02,-000.02,0000.19,0000.09,25.8,00.0,0634.3,34.5
2016-02-16T00:11:00Z,0000380,01000600,0000.00,-000.11,0000.19,-000.30,-000.03,0000.35,0000.11,-000.17,0000.10,25.8,00.0,0634.3,34.5
2016-02-16T00:12:00Z,0000380,01000600,-000.47,0000.13,0000.36,-000.43,-000.17,0000.27,-000.06,0000.08,0000.02,25.8,00.0,0634.3,34.5
2016-02-16T00:13:00Z,0000380,01000600,-000.27,0000.84,0000.13,-000.62,0000.15,0000.07,0000.00,-000.06,0000.28,25.8,00.0,0634.3,34.5
2016-02-16T00:14:00Z,0000380,01000600,-000.69,0000.83,0000.40,0000.35,0000.31,0000.03,0000.01,0000.11,-000.19,25.8,00.0,0634.4,34.5
2016-02-16T00:15:00Z,0000380,01000600,-000.09,0000.69,0000.05,0000.10,-000.23,0000.02,0000.15,0000.16,0000.23,25.8,00.0,0634.4,34.5
2016-02-16T00:16:00Z,0000380,01000600,0001.74,0001.04,0000.25,0000.00,0000.20,0000.15,-000.02,-000.12,-000.38,25.8,00.0,0634.4,34.5
2016-02-16T00:17:00Z,0000380,01000600,-000.19,0000.61,0000.31,0000.45,0000.05,0000.00,0000.11,0000.03,0000.16,25.8,00.0,0634.4,34.5
2016-02-16T00:18:00Z,0000380,01000600,0001.31,0000.16,0000.50,-000.38,0000.20,-000.08,-000.13,-000.00,0000.03,25.8,00.0,0634.4,34.5
2016-02-16T00:19:00Z,0000380,01000600,0000.67,0000.22,0000.38,-000.55,0000.26,0000.10,0000.08,0000.05,0000.13,25.8,00.0,0634.4,34.5
2016-02-16T00:20:00Z,0000380,01000600,-000.10,-000.24,0000.08,-000.52,0000.03,0000.10,-000.15,0000.07,-000.14,25.8,00.0,0634.4,34.5
2016-02-16T00:21:00Z,0000380,01000600,0000.58,0000.34,0000.08,0000.63,-000.17,-000.05,-000.01,-000.05,-000.11,25.8,00.0,0634.4,34.5
2016-02-16T00:22:00Z,0000380,01000600,0000.12,0000.51,0000.18,-000.30,-000.17,-000.05,0000.23,0000.02,0000.19,25.8,00.0,0634.3,34.5
2016-02-16T00:23:00Z,0000380,01000600,-000.97,0000.38,0000.54,-000.07,-000.40,-000.15,0000.02,0000.04,0000.02,25.8,00.0,0634.3,34.5
2016-02-16T00:24:00Z,0000380,01000600,-000.26,-000.30,0000.74,-000.10,0000.17,0000.22,0000.06,-000.03,0000.04,25.8,00.0,0634.3,34.5
2016-02-16T00:25:00Z,0000380,01000600,0000.05,0000.14,0000.19,-000.71,0000.15,0000.13,-000.02,0000.18,0000.04,25.8,00.0,0634.3,34.5
2016-02-16T00:26:00Z,0000380,01000600,-000.53,0000.60,0000.30,0000.20,0000.07,-000.20,0000.08,0000.05,0000.10,25.8,00.0,0634.3,34.5
2016-02-16T00:27:00Z,0000380,01000600,-001.62,-000.70,0000.77,-000.03,0000.23,-000.03,0000.00,-000.06,-000.04,25.8,00.0,0634.3,34.5
2016-02-16T00:28:00Z,0000380,01000600,0000.47,0000.68,0000.04,0000.10,-000.10,0000.00,0000.13,-000.01,-000.15,25.8,00.0,0634.3,34.5
2016-02-16T00:29:00Z,0000380,01000600,0000.43,0000.00,0000.34,0000.42,0000.45,0000.25,-000.00,0000.23,0000.13,25.8,00.0,0634.3,34.5
2016-02-16T00:30:00Z,0000380,01000600,0000.23,-000.19,0000.30,0000.00,-000.02,0000.08,-000.02,-000.18,-000.05,25.8,00.0,0634.4,34.5
2016-02-16T00:31:00Z,0000380,01000600,0000.46,0000.58,0000.29,0000.38,-000.12,0000.13,0000.18,0000.27,0000.09,25.8,00.0,0634.3,34.5
2016-02-16T00:32:00Z,0000380,01000600,0000.30,0000.13,-000.33,-000.28,-000.07,-000.07,-000.05,-000.22,0000.02,25.8,00.0,0634.3,34.5
2016-02-16T00:33:00Z,0000380,01000600,-000.07,0000.43,-000.46,0000.17,0000.15,0000.00,0000.15,0000.14,0000.11,25.8,00.0,0634.3,34.5
2016-02-16T00:34:00Z,0000380,01000600,-000.28,0000.18,0000.12,0000.78,0000.05,-000.17,-000.11,0000.12,0000.08,25.8,00.0,0634.3,34.5
2016-02-16T00:35:00Z,0000380,01000600,0000.40,-000.15,0000.36,0000.07,0000.00,0000.15,0000.11,-000.08,-000.03,25.8,00.0,0634.3,34.5
2016-02-16T00:36:00Z,0000380,01000600,-000.69,0000.23,0000.53,0000.17,0000.13,-000.03,-000.03,-000.12,0000.33,25.8,00.0,0634.3,34.5
2016-02-16T00:37:00Z,0000380,01000600,-000.59,0000.13,0000.56,-000.07,-000.18,-000.25,-000.12,0000.21,-000.52,25.8,00.0,0634.3,34.5
2016-02-16T00:38:00Z,0000380,01000600,0000.51,0000.31,0000.33,-000.45,0000.30,-000.03,0000.10,-000.04,0000.48,25.8,00.0,0634.3,34.5
2016-02-16T00:39:00Z,0000380,01000600,-000.31,0000.09,0000.87,0000.32,0000.45,0000.00,-000.03,-000.13,-000.34,25.8,00.0,0634.3,34.5
2016-02-16T00:40:00Z,0000380,01000600,-000.29,0000.58,0000.72,0000.07,0000.15,-000.05,0000.14,0000.14,-000.20,25.8,00.0,0634.3,34.5
2016-02-16T00:41:00Z,0000380,01000600,0000.20,-000.12,0000.68,0000.07,-000.07,0000.13,-000.25,-000.03,0000.38,25.8,00.0,0634.3,34.5
2016-02-16T00:42:00Z,0000380,01000600,0000.51,0000.02,0000.37,0000.50,0000.13,0000.27,0000.14,0000.04,-000.17,25.8,00.0,0634.3,34.5
2016-02-16T00:43:00Z,0000380,01000600,-000.37,0000.97,0000.64,0000.12,0000.08,-000.13,0000.11,-000.04,-000.11,25.8,00.0,0634.3,34.5
2016-02-16T00:44:00Z,0000380,01000600,0000.27,-000.52,0000.70,0000.25,0000.05,-000.28,-000.12,0000.09,-000.03,25.8,00.0,0634.3,34.5
2016-02-16T00:45:00Z,0000380,01000600,0000.22,0000.19,0000.60,0000.45,-000.05,-000.02,0000.15,-000.11,0000.36,25.8,00.0,0634.3,34.5
2016-02-16T00:46:00Z,0000380,01000600,-000.48,-000.47,0000.17,-000.02,0000.20,-000.12,0000.09,0000.04,-000.18,25.8,00.0,0634.3,34.5
2016-02-16T00:47:00Z,0000380,01000600,-001.89,0000.21,0000.19,0000.45,0000.13,0000.22,0000.03,0000.13,0000.22,25.8,00.0,0634.3,34.5
2016-02-16T00:48:00Z,0000380,01000600,0000.07,0000.26,0000.18,0000.10,0000.08,-000.17,0000.00,-000.11,-000.28,25.8,00.0,0634.3,34.5
2016-02-16T00:49:00Z,0000380,01000600,-000.34,-000.43,0000.11,0000.32,0000.13,-000.40,0000.06,0000.13,0000.14,25.8,00.0,0634.3,34.5
2016-02-16T00:50:00Z,0000380,01000600,-000.72,0000.54,0000.31,0000.28,0000.31,-000.33,-000.09,0000.20,0000.13,25.8,00.0,0634.3,34.5
2016-02-16T00:51:00Z,0000380,01000600,-000.62,0000.20,0000.26,-000.07,0000.15,0000.22,0000.04,-000.08,0000.22,25.8,00.0,0634.3,34.5
2016-02-16T00:52:00Z,0000380,01000600,0000.76,0000.34,-000.19,0000.03,0000.33,-000.12,-000.06,-000.08,-000.28,25.8,00.0,0634.3,34.5
2016-02-16T00:53:00Z,0000380,01000600,-000.01,0000.26,-000.15,0000.08,0000.25,-000.33,0000.04,0000.09,-000.05,25.7,00.0,0634.3,34.5
2016-02-16T00:54:00Z,0000380,01000600,0001.57,0000.45,0000.49,0000.43,0000.02,0000.40,0000.14,0000.02,0000.02,25.8,00.0,0634.3,34.5
2016-02-16T00:55:00Z,0000380,01000600,0000.77,0000.02,0001.01,-000.07,0000.23,0000.23,-000.04,0000.05,0000.02,25.8,00.0,0634.3,34.5
2016-02-16T00:56:00Z,0000380,01000600,0000.92,0000.55,0000.34,-000.15,0000.28,-000.15,0000.05,-000.11,0000.12,25.8,00.0,0634.3,34.5
2016-02-16T00:57:00Z,0000380,41000600,,,,,,,,,,,,0634.4,34.5
2016-02-16T00:58:00Z,0000380,61000600,,,,,,,,,,25.5,00.0,0633.6,34.5
2016-02-16T00:59:00Z,0000380,21000600,,,,,,,,,,25.5,00.0,0633.6,34.5
2016-02-16T01:00:00Z,0000380,21000600,,,,,,,,,,25.5,00.0,0633.6,34.5
2016-02-16T01:01:00Z,0000380,21000600,,,,,,,,,,25.5,00.0,0633.6,34.5
2016-02-16T01:02:00Z,0000380,21000600,,,,,,,,,,25.5,00.0,0633.6,34.5
2016-02-16T01:03:00Z,0000380,61000600,,,,,,,,,,25.6,00.0,0633.6,34.5
2016-02-16T01:04:00Z,0000380,41000600,-000.07,-000.02,0000.17,-000.35,-000.20,-000.08,0000.03,0000.06,0000.04,25.7,00.0,0634.4,34.5
2016-02-16T01:05:00Z,0000380,01000600,0000.01,0000.03,0000.10,0000.27,0000.05,-000.23,-000.04,-000.01,0000.24,25.7,00.0,0634.5,34.5
2016-02-16T01:06:00Z,0000380,01000600,0000.04,0000.00,0000.21,-000.32,-000.35,-000.22,-000.07,-000.01,-000.19,25.7,00.0,0634.5,34.5
2016-02-16T01:07:00Z,0000380,01000600,0000.23,0000.26,0000.14,0000.05,-000.18,0000.03,0000.20,-000.03,0000.07,25.7,00.0,0634.5,34.5
2016-02-16T01:08:00Z,0000380,01000600,0000.99,0000.29,-000.37,-000.56,-000.46,-000.22,-000.07,0000.18,-000.06,25.7,00.0,0634.5,34.5
2016-02-16T01:09:00Z,0000380,01000600,0000.99,-000.03,0000.16,0000.17,-000.20,0000.00,-000.06,-000.12,0000.08,25.8,00.0,0634.5,34.5
2016-02-16T01:10:00Z,0000380,01000600,0000.50,0000.64,0000.14,-000.33,0000.10,0000.08,0000.14,0000.06,0000.22,25.8,00.0,0634.5,34.5
2016-02-16T01:11:00Z,0000380,01000600,0000.50,0000.48,-000.24,-000.10,-000.43,0000.15,0000.09,0000.08,-000.34,25.8,00.0,0634.6,34.5
2016-02-16T01:12:00Z,0000380,01000600,-000.22,0000.24,0000.04,0000.60,-000.35,0000.20,-000.04,-000.03,0000.36,25.8,00.0,0634.5,34.5
2016-02-16T01:13:00Z,0000380,01000600,-000.06,0000.62,-000.18,-000.33,-000.36,0000.12,0000.11,-000.08,-000.29,25.8,00.0,0634.5,34.5
2016-02-16T01:14:00Z,0000380,01000600,0000.98,0000.21,0000.17,0000.02,-000.08,-000.17,-000.19,0000.15,0000.18,25.8,00.0,0634.5,34.5
2016-02-16T01:15:00Z,0000380,01000600,0000.10,0000.38,0000.04,-000.12,-000.26,-000.13,0000.05,-000.10,-000.10,25.8,00.0,0634.5,34.5
2016-02-16T01:16:00Z,0000380,01000600,0001.19,0000.27,-000.20,0000.13,0000.02,-000.02,-000.01,0000.11,0000.19,25.8,00.0,0634.5,34.5
2016-02-16T01:17:00Z,0000380,01000600,0000.45,0000.08,0000.04,-000.12,-000.05,0000.20,0000.05,-000.03,0000.12,25.8,00.0,0634.5,34.5
2016-02-16T01:18:00Z,0000380,01000600,-000.02,0000.38,0000.26,-000.68,-000.22,0000.13,0000.13,0000.13,-000.21,25.8,00.0,0634.5,34.5
2016-02-16T01:19:00Z,0000380,01000600,0001.14,0000.35,0000.05,0000.33,-000.20,-000.23,-000.18,-000.05,-000.02,25.8,00.0,0634.5,34.5
2016-02-16T01:20:00Z,0000380,01000600,0000.00,0000.42,0000.03,-000.22,-000.31,0000.00,0000.10,-000.03,0000.02,25.8,00.0,0634.6,34.5
2016-02-16T01:21:00Z,0000380,01000600,0000.51,-000.12,0000.05,-000.35,-000.13,-000.17,0000.05,0000.04,0000.19,25.8,00.0,0634.6,34.5
2016-02-16T01:22:00Z,0000380,01000600,0000.36,0000.21,0000.02,-000.12,0000.18,0000.08,-000.03,-000.00,-000.14,25.9,00.0,0634.6,34.5
2016-02-16T01:23:00Z,0000380,01000600,-000.57,-000.25,0000.00,-000.68,-000.05,0000.02,0000.12,0000.08,-000.10,25.9,00.0,0634.6,34.5
2016-02-16T01:24:00Z,0000380,01000600,0001.30,0000.82,0000.47,-000.37,-000.03,0000.02,-000.05,0000.16,0000.22,25.9,00.0,0634.6,34.5
2016-02-16T01:25:00Z,0000380,01000600,0000.23,-000.02,0000.98,-000.66,-000.31,0000.10,0000.14,-000.12,0000.01,25.9,00.0,0634.6,34.5
2016-02-16T01:26:00Z,0000380,01000600,0000.53,0000.27,-000.06,0000.13,-000.36,0000.35,-000.17,-000.07,0000.08,26.0,00.0,0634.6,34.5
2016-02-16T01:27:00Z,0000380,01000600,0000.12,0000.69,0000.15,-000.02,0000.12,0000.32,0000.08,0000.06,0000.00,26.0,00.0,0634.6,34.5
2016-02-16T01:28:00Z,0000380,01000600,0000.69,-000.04,0000.40,0000.32,0000.36,-000.18,0000.03,-000.05,0000.03,26.0,00.0,0634.7,34.5
2016-02-16T01:29:00Z,0000380,01000600,-000.33,0000.91,0000.58,-000.08,-000.12,0000.25,-000.02,0000.02,0000.02,26.0,00.0,0634.6,34.5
2016-02-16T01:30:00Z,0000380,01000600,0000.81,0000.05,-000.54,0000.13,0000.00,0000.07,0000.06,0000.08,-000.11,26.0,00.0,0634.7,34.5
2016-02-16T01:31:00Z,0000380,01000600,0000.10,0000.30,0000.06,-000.12,-000.40,0000.03,0000.16,0000.09,0000.25,26.0,00.0,0634.7,34.5
2016-02-16T01:32:00Z,0000380,01000600,0000.39,0000.65,-000.07,0000.05,0000.15,0000.00,0000.05,-000.05,-000.15,26.0,00.0,0634.7,34.5
2016-02-16T01:33:00Z,0000380,01000600,0000.25,0000.92,0000.35,0000.23,0000.25,0000.00,0000.02,-000.06,0000.02,26.0,00.0,0634.7,34.5
2016-02-16T01:34:00Z,0000380,01000600,-000.44,0000.15,0000.24,0000.58,-000.31,0000.12,-000.04,-000.01,0000.13,26.0,00.0,0634.7,34.5
2016-02-16T01:35:00Z,0000380,01000600,0000.64,0000.43,0000.21,-000.37,-000.50,0000.12,-000.06,0000.08,-000.20,26.1,00.0,0634.7,34.5
2016-02-16T01:36:00Z,0000380,01000600,0000.95,0000.64,0000.37,-000.27,-000.51,0000.03,-000.04,0000.07,-000.13,26.1,00.0,0634.7,34.5
2016-02-16T01:37:00Z,0000380,01000600,0000.20,0000.52,0000.50,0000.05,0000.03,-000.12,0000.18,-000.00,0000.03,26.1,00.0,0634.7,34.5
2016-02-16T01:38:00Z,0000380,01000600,0000.07,0000.50,-000.23,-000.30,-000.40,-000.27,-000.02,-000.05,0000.39,26.1,00.0,0634.7,34.5
2016-02-16T01:39:00Z,0000380,01000600,0000.36,-000.10,0000.29,0000.32,-000.10,0000.25,-000.02,0000.08,-000.39,26.1,00.0,0634.7,34.5
2016-02-16T01:40:00Z,0000380,01000600,0000.26,0000.08,0000.43,0000.68,0000.08,-000.02,0000.08,-000.07,0000.02,26.1,00.0,0634.7,34.5
2016-02-16T01:41:00Z,0000380,01000600,-000.09,0000.27,0000.25,0000.00,0000.35,0000.00,-000.06,-000.02,0000.34,26.1,00.0,0634.7,34.5
2016-02-16T01:42:00Z,0000380,01000600,-000.15,-000.62,0000.25,-000.27,0000.15,0000.07,0000.16,0000.12,0000.07,26.2,00.0,0634.8,34.5
2016-02-16T01:43:00Z,0000380,01000600,0000.17,0000.90,0000.36,-000.95,-000.35,-000.03,0000.12,0000.05,-000.02,26.2,00.0,0634.8,34.5
2016-02-16T01:44:00Z,0000380,01000600,0000.39,-000.17,0000.37,0000.00,0000.17,0000.10,0000.04,-000.03,-000.12,26.2,00.0,0634.8,34.5
2016-02-16T01:45:00Z,0000380,01000600,0000.66,0000.77,-000.19,0000.12,0000.61,0000.17,-000.12,-000.03,0000.06,26.2,00.0,0634.8,34.5
2016-02-16T01:46:00Z,0000380,01000600,-000.04,-000.29,0000.10,-000.32,0000.27,-000.02,-000.04,0000.03,-000.21,26.2,00.0,0634.8,34.5
2016-02-16T01:47:00Z,0000380,01000600,0000.47,0000.27,-000.13,0000.55,-000.08,-000.20,0000.12,0000.10,0000.42,26.2,00.0,0634.8,34.5
2016-02-16T01:48:00Z,0000380,01000600,-000.44,-000.23,0000.45,0000.17,0000.15,-000.48,0000.13,-000.00,-000.17,26.2,00.0,0634.8,34.5
2016-02-16T01:49:00Z,0000380,01000600,0000.61,0000.40,-000.37,0000.50,-000.27,0000.03,-000.01,0000.12,-000.10,26.2,00.0,0634.8,34.5
2016-02-16T01:50:00Z,0000380,01000600,-000.02,0000.02,0000.63,-000.03,-000.33,0000.25,-000.06,-000.10,0000.09,26.2,00.0,0634.8,34.5
2016-02-16T01:51:00Z,0000380,01000600,0000.78,-000.02,0000.10,0000.30,-000.10,-000.13,0000.05,-000.00,0000.13,26.2,00.0,0634.8,34.5
2016-02-16T01:52:00Z,0000380,01000600,-000.21,0000.38,0000.32,-000.35,0000.00,0000.27,0000.08,0000.12,-000.26,26.2,00.0,0634.8,34.5
2016-02-16T01:53:00Z,0000380,01000600,0000.07,0000.69,0000.22,0000.17,-000.05,-000.23,-000.04,0000.07,0000.27,26.2,00.0,0634.8,34.5
2016-02-16T01:54:00Z,0000380,01000600,-000.33,0000.79,-000.21,-000.07,0000.56,0000.03,0000.15,-000.18,0000.11,26.3,00.0,0634.8,34.5
2016-02-16T01:55:00Z,0000380,01000600,0001.23,0000.02,-000.03,-000.05,0000.00,-000.03,0000.03,0000.12,-000.25,26.3,00.0,0634.8,34.5
2016-02-16T01:56:00Z,0000380,01000600,0000.28,0000.40,-000.19,-000.27,-000.02,0000.00,0000.00,-000.11,0000.11,26.3,00.0,0634.7,34.5
2016-02-16T01:57:00Z,0000380,41000600,,,,,,,,,,,,0634.7,34.5
2016-02-16T01:58:00Z,0000380,61000600,,,,,,,,,,26.0,00.0,0634.0,34.5
2016-02-16T01:59:00Z,0000380,21000600,,,,,,,,,,26.0,00.0,0633.9,34.5
2016-02-16T02:00:00Z,0000380,21000600,,,,,,,,,,26.0,00.0,0633.9,34.5
2016-02-16T02:01:00Z,0000380,21000600,,,,,,,,,,26.0,00.0,0633.9,34.5
2016-02-16T02:02:00Z,0000380,21000600,,,,,,,,,,26.0,00.0,0633.9,34.5
2016-02-16T02:03:00Z,0000380,61000600,,,,,,,,,,26.1,00.0,0634.0,34.5
2016-02-16T02:04:00Z,0000380,41000600,-000.54,0000.64,0000.18,0000.18,-000.33,-000.03,-000.02,-000.08,-000.11,26.3,00.0,0634.7,34.5
2016-02-16T02:05:00Z,0000380,01000600,0000.57,0000.00,0000.74,0000.00,-000.13,0000.07,-000.10,-000.01,0000.04,26.3,00.0,0634.7,34.5
2016-02-16T02:06:00Z,0000380,01000600,-000.14,0000.24,0000.48,-000.15,-000.05,-000.05,0000.11,0000.10,-000.02,26.3,00.0,0634.7,34.5
2016-02-16T02:07:00Z,0000380,01000600,-000.39,0000.33,-000.18,0000.38,-000.18,0000.18,0000.07,0000.04,-000.01,26.3,00.0,0634.7,34.5
2016-02-16T02:08:00Z,0000380,01000600,0000.09,0000.90,0000.53,0000.23,0000.13,0000.35,-000.09,0000.01,0000.11,26.3,00.0,0634.6,34.5
2016-02-16T02:09:00Z,0000380,01000600,0001.57,-000.06,0000.57,0000.70,0000.12,0000.05,-000.05,-000.14,-000.11,26.3,00.0,0634.6,34.5
2016-02-16T02:10:00Z,0000380,01000600,-000.02,-000.44,0000.06,-000.15,-000.08,-000.27,0000.09,-000.05,0000.02,26.3,00.0,0634.6,34.5
2016-02-16T02:11:00Z,0000380,01000600,-000.50,0000.53,0000.45,0000.20,0000.25,0000.07,0000.08,0000.10,-000.00,26.3,00.0,0634.6,34.5
2016-02-16T02:12:00Z,0000380,01000600,-000.10,0000.08,-000.23,-000.20,0000.02,0000.17,0000.13,0000.12,0000.19,26.3,00.0,0634.6,34.5
2016-02-16T02:13:00Z,0000380,01000600,-000.42,0000.45,0000.33,-000.08,0000.35,-000.27,-000.27,-000.06,-000.06,26.3,00.0,0634.6,34.5
2016-02-16T02:14:00Z,0000380,01000600,-000.36,-000.37,0000.44,-000.33,0000.55,-000.08,0000.22,-000.13,0000.09,26.3,00.0,0634.6,34.5
2016-02-16T02:15:00Z,0000380,01000600,0000.39,0000.30,0000.08,0000.43,0000.00,0000.02,-000.05,0000.10,0000.04,26.3,00.0,0634.6,34.5
2016-02-16T02:16:00Z,0000380,01000600,-000.23,-000.16,-000.09,0000.60,-000.15,0000.08,0000.13,0000.10,-000.36,26.3,00.0,0634.7,34.5
2016-02-16T02:17:00Z,0000380,01000600,0000.85,0000.28,0000.44,0000.23,0000.00,-000.03,0000.01,0000.02,0000.23,26.3,00.0,0634.7,34.5
2016-02-16T02:18:00Z,0000380,01000600,0000.61,0000.50,0000.53,0000.32,-000.13,0000.27,-000.08,-000.05,-000.04,26.3,00.0,0634.6,34.5
2016-02-16T02:19:00Z,0000380,01000600,-000.20,-000.04,0000.28,-000.03,0000.07,-000.15,-000.05,0000.02,-000.06,26.3,00.0,0634.6,34.5
2016-02-16T02:20:00Z,0000380,01000600,-000.71,0000.38,0000.04,0000.37,0000.07,-000.13,0000.20,0000.04,0000.03,26.3,00.0,0634.6,34.5
2016-02-16T02:21:00Z,0000380,01000600,-000.43,0000.33,-000.02,-000.33,-000.03,-000.28,-000.12,0000.10,-000.09,26.3,00.0,0634.6,34.5
2016-02-16T02:22:00Z,0000380,01000600,-000.02,-000.04,-000.22,-000.28,-000.27,-000.10,0000.01,-000.02,0000.20,26.3,00.0,0634.6,34.5
2016-02-16T02:23:00Z,0000380,01000600,-000.34,-000.12,-000.01,0000.28,-000.12,-000.25,0000.15,-000.04,0000.08,26.3,00.0,0634.5,34.5
2016-02-16T02:24:00Z,0000380,01000600,-000.45,0000.25,0000.12,-000.08,-000.10,0000.15,-000.06,0000.03,-000.11,26.3,00.0,0634.5,34.5
2016-02-16T02:25:00Z,0000380,01000600,0000.26,0000.65,0000.11,-000.57,-000.46,-000.05,0000.03,-000.06,-000.15,26.3,00.0,0634.5,34.5
2016-02-16T02:26:00Z,0000380,01000600,0001.33,0000.23,0000.17,-000.57,0000.28,0000.05,0000.12,0000.06,0000.09,26.3,00.0,0634.5,34.5
2016-02-16T02:27:00Z,0000380,01000600,-000.34,0000.00,0000.14,0000.33,0000.40,0000.30,-000.12,-000.01,0000.13,26.3,00.0,0634.5,34.5
2016-02-16T02:28:00Z,0000380,01000600,0000.19,0000.21,-000.03,0000.12,-000.02,-000.45,0000.09,-000.06,-000.17,26.3,00.0,0634.5,34.5
2016-02-16T02:29:00Z,0000380,01000600,0000.69,0000.14,-000.09,0000.95,0000.32,-000.45,-000.03,0000.15,0000.31,26.3,00.0,0634.5,34.5
2016-02-16T02:30:00Z,0000380,01000600,0000.08,0000.10,0000.48,0000.15,-000.08,0000.07,0000.12,0000.12,-000.01,26.3,00.0,0634.5,34.5
2016-02-16T02:31:00Z,0000380,01000600,0000.79,0000.30,0000.15,-000.02,0000.36,0000.22,0000.00,-000.08,-000.05,26.4,00.0,0634.5,34.5
2016-02-16T02:32:00Z,0000380,01000600,-000.14,0000.25,0000.04,0000.62,-000.30,-000.22,-000.14,0000.02,0000.04,26.4,00.0,0634.5,34.5
2016-02-16T02:33:00Z,0000380,01000600,-000.40,-000.23,-000.19,0000.00,-000.15,-000.38,0000.14,0000.02,-000.03,26.3,00.0,0634.5,34.5
2016-02-16T02:34:00Z,0000380,01000600,0000.56,0000.79,-000.06,0000.22,-000.07,-000.18,-000.01,-000.08,0000.08,26.3,00.0,0634.5,34.5
2016-02-16T02:35:00Z,0000380,01000600,0000.69,0000.85,-000.10,-000.23,-000.07,0000.03,-000.00,0000.01,0000.12,26.4,00.0,0634.4,34.5
2016-02-16T02:36:00Z,0000380,01000600,-000.31,0000.16,0000.08,-000.07,-000.08,-000.42,0000.21,0000.09,-000.20,26.4,00.0,0634.4,34.5
2016-02-16T02:37:00Z,0000380,01000600,-000.03,0000.57,0000.04,0000.38,-000.12,-000.40,-000.08,-000.00,-000.18,26.3,00.0,0634.4,34.5
2016-02-16T02:38:00Z,0000380,01000600,0000.08,0000.40,0000.22,0000.55,-000.02,0000.03,0000.02,-000.01,0000.16,26.3,00.0,0634.4,34.5
2016-02-16T02:39:00Z,0000380,01000600,0000.88,0000.61,0000.46,0000.38,0000.12,-000.07,-000.10,0000.10,0000.24,26.3,00.0,0634.4,34.5
2016-02-16T02:40:00Z,0000380,01000600,0000.73,-000.13,0000.05,-000.08,-000.03,0000.25,0000.05,0000.02,-000.14,26.3,00.0,0634.4,34.5
2016-02-16T02:41:00Z,0000380,01000600,-000.52,0000.73,0000.48,-000.13,-000.10,-000.18,0000.18,0000.02,0000.00,26.3,00.0,0634.4,34.5
2016-02-16T02:42:00Z,0000380,01000600,0000.40,-000.06,0000.27,0000.17,-000.03,-000.12,-000.13,0000.12,0000.19,26.3,00.0,0634.5,34.5
2016-02-16T02:43:00Z,0000380,01000600,-000.02,0000.24,-000.07,0000.13,0000.10,-000.15,0000.19,-000.14,-000.17,26.3,00.0,0634.5,34.5
2016-02-16T02:44:00Z,0000380,01000600,-000.42,-000.57,0000.73,-000.70,0000.08,0000.28,-000.13,0000.25,0000.26,26.3,00.0,0634.5,34.5
2016-02-16T02:45:00Z,0000380,01000600,0000.51,-000.63,0000.12,0000.47,-000.07,-000.15,0000.10,-000.14,-000.27,26.3,00.0,0634.6,34.5
2016-02-16T02:46:00Z,0000380,01000600,0000.44,0000.49,0000.09,0000.20,0000.18,0000.10,-000.32,-000.21,-000.15,26.3,00.0,0634.6,34.5
2016-02-16T02:47:00Z,0000380,01000600,-000.08,0000.14,0000.22,0000.62,0000.00,0000.05,0000.25,0000.09,0000.19,26.3,00.0,0634.5,34.5
2016-02-16T02:48:00Z,0000380,01000600,0001.15,0001.09,0000.53,0000.20,-000.45,0000.02,-000.12,0000.16,-000.09,26.3,00.0,0634.5,34.5
2016-02-16T02:49:00Z,0000380,01000600,-000.08,0000.34,-000.17,-000.07,0000.13,-000.28,0000.07,-000.00,0000.17,26.3,00.0,0634.5,34.5
2016-02-16T02:50:00Z,0000380,01000600,0000.00,-000.19,0000.04,-000.33,0000.40,0000.25,0000.10,-000.11,0000.11,26.3,00.0,0634.5,34.5
2016-02-16T02:51:00Z,0000380,01000600,0000.67,0001.03,0000.26,0000.22,-000.02,0000.02,-000.08,0000.03,-000.04,26.3,00.0,0634.5,34.5
2016-02-16T02:52:00Z,0000380,01000600,0000.77,-000.35,-000.15,0000.32,-000.08,-000.22,-000.01,0000.05,0000.05,26.2,00.0,0634.5,34.5
2016-02-16T02:53:00Z,0000380,01000600,-000.93,0000.15,0000.51,-000.60,0000.45,-000.17,0000.17,0000.04,0000.00,26.2,00.0,0634.5,34.5
2016-02-16T02:54:00Z,0000380,01000600,-000.57,0000.06,0000.23,0000.43,-000.03,-000.05,0000.07,0000.10,-000.02,26.2,00.0,0634.5,34.5
2016-02-16T02:55:00Z,0000380,01000600,0001.11,0000.47,0000.25,-000.32,0000.27,-000.23,-000.05,-000.15,-000.24,26.2,00.0,0634.5,34.5
2016-02-16T02:56:00Z,0000380,01000600,-000.84,0000.59,0000.42,0000.28,0000.27,-000.08,-000.03,-000.10,0000.34,26.2,00.0,0634.5,34.5
2016-02-16T02:57:00Z,0000380,41000600,,,,,,,,,,,,0634.4,34.5
2016-02-16T02:58:00Z,0000380,61000600,,,,,,,,,,26.0,00.0,0633.8,34.5
2016-02-16T02:59:00Z,0000380,21000600,,,,,,,,,,26.0,00.0,0633.7,34.5
2016-02-16T03:00:00Z,0000380,21000600,,,,,,,,,,26.0,00.0,0633.7,34.5
2016-02-16T03:01:00Z,0000380,21000600,,,,,,,,,,26.0,00.0,0633.7,34.5
2016-02-16T03:02:00Z,0000380,21000600,,,,,,,,,,26.0,00.0,0633.7,34.5
2016-02-16T03:03:00Z,0000380,61000600,,,,,,,,,,26.0,00.0,0633.7,34.5
2016-02-16T03:04:00Z,0000380,41000600,0000.17,-000.04,-000.09,0000.43,0000.08,0000.10,-000.10,0000.15,-000.08,26.1,00.0,0634.4,34.5
2016-02-16T03:05:00Z,0000380,01000600,0000.00,-000.00,-000.02,-000.22,-000.05,0000.15,0000.08,-000.08,0000.29,26.1,00.0,0634.4,34.5
2016-02-16T03:06:00Z,0000380,01000600,0000.50,0000.41,0000.07,-000.72,-000.10,-000.20,0000.21,-000.04,-000.12,26.1,00.0,0634.4,34.5
2016-02-16T03:07:00Z,0000380,01000600,-000.54,0000.45,-000.42,-000.50,-000.13,0000.35,0000.03,0000.14,-000.15,26.1,00.0,0634.4,34.5
2016-02-16T03:08:00Z,0000380,01000600,0000.42,0000.33,-000.36,-000.13,0000.15,-000.05,0000.13,-000.09,0000.24,26.0,00.0,0634.4,34.5
2016-02-16T03:09:00Z,0000380,01000600,-000.44,0001.39,-000.50,-000.47,-000.12,0000.18,-000.13,0000.07,-000.20,26.0,00.0,0634.4,34.5
2016-02-16T03:10:00Z,0000380,01000600,0000.72,0000.44,-000.07,0000.07,0000.36,-000.02,-000.04,0000.02,0000.02,26.1,00.0,0634.4,34.5
2016-02-16T03:11:00Z,0000380,01000600,0000.27,0000.20,-000.13,-000.45,-000.22,0000.38,0000.02,0000.07,-000.10,26.0,00.0,0634.4,34.5
2016-02-16T03:12:00Z,0000380,01000600,-000.77,0000.32,-000.20,-000.17,0000.05,0000.07,-000.01,-000.11,-000.05,26.0,00.0,0634.4,34.5